Weather History for K1B7 - December, 2013

Change the Weather History Date:

Monday, December 9, 2013

  Actual Average (KAXO) Record (KAXO)
Temperature  
Mean Temperature 58 °F -  
Max Temperature 60 °F 59 °F 77 °F (2012)
Min Temperature 57 °F 55 °F 55 °F (2000)
Degree Days  
Heating Degree Days 6    
Growing Degree Days 8 (Base 50)    
Moisture  
Dew Point 59 °F    
Average Humidity 99    
Maximum Humidity 100    
Minimum Humidity 94    
Precipitation  
Precipitation 0.00 in - - ()
Sea Level Pressure  
Sea Level Pressure 30.07 in    
Wind  
Wind Speed 9 mph (NNE)    
Max Wind Speed 14 mph    
Max Gust Speed -    
Visibility 2 miles    
Events Fog    
Averages and records for this station are not official NWS values.
T = Trace of Precipitation, MM = Missing Value Source: NWS Daily Summary

Daily Weather History Graph

Daily Weather History Graph

Search for Another Location

Airport or City:

Trip Planner

Search our weather history database for the weather conditions in past years. The results will help you decide how hot, cold, wet, or windy it might be!

Date:

Astronomy

Dec. 09, 2013 Rise Set
Actual Time 6:40 AM CST 4:59 PM CST
Civil Twilight 6:14 AM CST 5:25 PM CST
Nautical Twilight 5:45 AM CST 5:55 PM CST
Astronomical Twilight 5:16 AM CST 6:24 PM CST
Moon 12:00 PM CST (12/9) No Moon Set
Length of Visible Light 11h 11m
Length of Day
10h 18m
Waxing Crescent, 51% of the Moon is Illuminated
Dec 9
Waxing Crescent
Dec 17
Full
Dec 25
Last Quarter
Jan 1
New
Jan 7
First Quarter

Hourly Weather History & Observations

Time (CST) Temp. Dew Point Humidity Pressure Visibility Wind Dir Wind Speed Gust Speed Precip Events Conditions
5:06 AM 57.2 °F 57.2 °F 100% 30.04 in 0.2 mi NNW 8.1 mph - N/A Fog Fog
5:45 AM 59.0 °F 59.0 °F 100% 30.07 in 0.2 mi NNW 9.2 mph - N/A Fog Fog
6:24 AM 59.0 °F 59.0 °F 100% 30.07 in 0.2 mi NNW 10.4 mph - N/A Fog Fog
6:45 AM 59.0 °F 59.0 °F 100% 30.09 in 0.2 mi NNW 8.1 mph - N/A Fog Fog
7:13 AM 57.2 °F 57.2 °F 100% 30.09 in 0.2 mi North 10.4 mph - N/A Fog Fog
7:46 AM 57.2 °F 57.2 °F 100% 30.10 in 0.5 mi North 9.2 mph - N/A Fog Fog
8:07 AM 57.2 °F 57.2 °F 100% 30.10 in 1.0 mi NNW 11.5 mph - N/A   Overcast
8:45 AM 57.2 °F 57.2 °F 100% 30.11 in 3.0 mi North 8.1 mph - N/A   Overcast
9:11 AM 59.0 °F 59.0 °F 100% 30.11 in 3.0 mi North 9.2 mph - N/A   Overcast
9:45 AM 59.0 °F 59.0 °F 100% 30.11 in 3.0 mi NE 9.2 mph - N/A   Overcast
10:14 AM 59.0 °F 59.0 °F 100% 30.11 in 3.0 mi NE 9.2 mph - N/A   Mostly Cloudy
10:45 AM 59.0 °F 59.0 °F 100% 30.11 in 3.0 mi North 12.7 mph - N/A   Overcast
11:18 AM 59.0 °F 59.0 °F 100% 30.10 in 3.0 mi North 8.1 mph - N/A   Overcast
11:45 AM 59.0 °F 59.0 °F 100% 30.09 in 3.0 mi North 9.2 mph - N/A   Overcast
12:17 PM 59.0 °F 59.0 °F 100% 30.09 in 3.0 mi NNE 11.5 mph - N/A   Overcast
12:45 PM 60.8 °F 59.0 °F 94% 30.06 in 3.0 mi NNE 9.2 mph - N/A   Overcast
1:17 PM 60.8 °F 59.0 °F 94% 30.05 in 5.0 mi NE 11.5 mph - N/A   Overcast
1:45 PM 60.8 °F 59.0 °F 94% 30.05 in 5.0 mi NNE 11.5 mph - N/A   Overcast
2:09 PM 59.0 °F 59.0 °F 100% 30.05 in 3.0 mi NE 13.8 mph - N/A   Overcast
2:45 PM 59.0 °F 59.0 °F 100% 30.04 in 3.0 mi NE 11.5 mph - N/A   Overcast
3:16 PM 59.0 °F 59.0 °F 100% 30.04 in 2.0 mi NE 10.4 mph - N/A   Overcast
3:30 PM 59.0 °F 59.0 °F 100% 30.05 in - ENE 5.8 mph - N/A   Overcast
3:38 PM 59.0 °F 59.0 °F 100% 30.05 in 0.8 mi ENE 8.1 mph - N/A   Overcast
3:45 PM 59.0 °F 59.0 °F 100% 30.05 in 0.5 mi NE 5.8 mph - N/A Fog Fog
3:58 PM 59.0 °F 59.0 °F 100% 30.04 in 0.2 mi ENE 6.9 mph - N/A Fog Fog
4:04 PM 59.0 °F 59.0 °F 100% 30.04 in 0.2 mi ENE 3.5 mph - N/A Fog Fog